Location: Ostrava
(49.8330°N, 18.2830°E)
Time: 00:06:14
(UTC+02:00)

Vanguard 2 Rocket - Visible Passes

Search period start: 17 October 2017 00:00
Search period end: 27 October 2017 00:00
Orbit: 555 x 3327 km, 32.9° (Epoch: 15 October)

Date Brightness Start Highest point End Pass type
(mag) Time Alt. Az. Time Alt. Az. Time Alt. Az.
17 Oct 10.5 18:41:08 10° WSW 18:51:06 26° SSW 19:04:32 10° SSE visible
17 Oct 11.1 21:01:20 10° SW 21:05:33 11° SW 21:10:03 10° SSW visible
18 Oct 10.9 19:57:45 10° WSW 20:05:17 16° SSW 20:14:08 10° S visible
19 Oct 10.8 18:56:46 10° WSW 19:05:01 19° SSW 19:15:33 10° S visible
20 Oct 10.6 17:56:48 10° WSW 18:04:51 22° SSW 18:15:50 10° SSE visible
21 Oct 11.0 19:14:21 10° SW 19:18:58 12° SSW 19:24:12 10° SSW visible
22 Oct 10.9 18:12:59 10° SW 18:18:55 15° SSW 18:26:18 10° S visible
